SIRIUS-1 1 26390U 00035A 09182.11619005 -.00000030 00000-0 10000-3 0 5030 2 26390 61.5257 255.2120 2727525 270.6799 58.6857 1.00276879 32986 SIRIUS-2 1 26483U 00051A 09182.77509602 .00000035 00000-0 10000-3 0 2057 2 26483 63.7286 134.9279 2701410 268.6420 60.5916 1.00281496 32323 SIRIUS-3 1 26626U 00077A 09183.44479327 -.00000176 00000-0 10000-3 0 4429 2 26626 64.0847 14.9659 2669653 269.9047 59.7933 1.00273278 31461 XM-2 (ROCK) 1 26724U 01012A 09183.41817083 -.00000204 00000-0 00000+0 0 6171 2 26724 0.0688 269.0757 0000041 189.5537 247.2671 1.00270123 30440 XM-1 (ROLL) 1 26761U 01018A 09183.42173838 -.00000204 00000-0 00000+0 0 3999 2 26761 0.0899 269.0424 0000189 81.6373 356.5668 1.00270214 29910 XM-3 (RHYTHM) 1 28626U 05008A 09183.32008841 -.00000204 00000-0 00000+0 0 6087 2 28626 0.0058 5.0405 0000105 61.2080 244.3434 1.00269684 15956 XM-4 (BLUES) 1 29520U 06049A 09184.23841057 -.00000023 00000-0 10000-3 0 3869 2 29520 0.0057 2.5922 0000364 163.2614 86.3626 1.00272109 9909